カタログに戻る

STARLINK-5868

運用中通信VLEO
NORAD 56483·PAYLOAD·🇺🇸 United States

打ち上げ May 10, 2023 から Vandenberg Space Force Base

Loading…

次のパス (今後24時間)

TLE

最新Source: CelesTrak SupGP

元期: Sep 15, 2026, 02:01 UTC

1 56483C 23064AM  26258.08451389  .00507300  00000+0  40554-1 0  2583
2 56483  70.0004   6.8632 0003156 270.7590 327.7755 14.99891071    15

AllMySatでSTARLINK-5868をリアルタイム追跡

Download on the App Store